Location: Peebles
(55.6412°N, 3.1714°W)
Time: 05:17:41
(UTC+00:00)

CUTE-I - Visible Passes

Search period start: 10 December 2023 00:00
Search period end: 20 December 2023 00:00
Orbit: 808 x 822 km, 98.7° (Epoch: 09 December)

Date Brightness Start Highest point End Pass type
(mag) Time Alt. Az. Time Alt. Az. Time Alt. Az.
10 Dec ? 05:05:06 10° NE 05:08:05 15° E 05:11:02 10° ESE visible
10 Dec ? 06:43:40 10° NNE 06:49:04 72° ESE 06:54:25 10° S visible
10 Dec ? 16:33:08 10° SE 16:38:12 47° ENE 16:43:20 10° N visible
10 Dec ? 18:13:25 10° SSW 18:18:21 38° W 18:23:19 10° NNW visible
11 Dec ? 06:21:32 10° NNE 06:26:47 50° E 06:31:59 10° S visible
11 Dec ? 17:50:48 10° S 17:56:00 54° W 18:01:16 10° NNW visible
11 Dec ? 19:36:08 10° W 19:37:16 11° W 19:38:22 10° WNW visible
12 Dec ? 05:59:29 10° NNE 06:04:26 35° E 06:09:20 10° SSE visible
12 Dec ? 07:39:25 10° N 07:44:37 50° WNW 07:49:47 10° SW visible
12 Dec ? 17:28:25 10° SSE 17:33:44 77° WSW 17:39:07 10° NNW visible
12 Dec ? 19:11:29 10° WSW 19:14:40 16° W 19:17:51 10° NW visible
13 Dec ? 05:37:35 10° NE 05:42:00 25° E 05:46:24 10° SE visible
13 Dec ? 07:17:08 10° NNE 07:22:30 70° WNW 07:27:50 10° SSW visible
13 Dec ? 17:06:13 10° SSE 17:11:32 77° ENE 17:16:54 10° NNW visible
13 Dec ? 18:48:00 10° SW 18:52:07 23° W 18:56:18 10° NW visible
14 Dec ? 05:15:55 10° NE 05:19:30 18° E 05:23:04 10° SE visible
14 Dec ? 06:54:54 10° NNE 07:00:19 84° ESE 07:05:42 10° SSW visible
14 Dec ? 16:44:13 10° SE 16:49:24 55° ENE 16:54:38 10° N visible
14 Dec ? 18:24:57 10° SSW 18:29:41 32° W 18:34:28 10° NNW visible
15 Dec ? 04:54:48 10° ENE 04:56:55 12° E 04:59:02 10° ESE visible
15 Dec ? 06:32:44 10° NNE 06:38:04 60° ESE 06:43:22 10° S visible
15 Dec ? 16:22:23 10° SE 16:27:20 40° ENE 16:32:18 10° N visible
15 Dec ? 18:02:13 10° S 18:07:18 45° W 18:12:27 10° NNW visible
16 Dec ? 06:10:38 10° NNE 06:15:45 42° E 06:20:50 10° SSE visible
16 Dec ? 17:39:43 10° S 17:45:00 64° WSW 17:50:21 10° NNW visible
16 Dec ? 19:23:39 10° WSW 19:26:05 13° W 19:28:32 10° NW visible
17 Dec ? 05:48:39 10° NNE 05:53:22 30° E 05:58:03 10° SSE visible
17 Dec ? 07:28:25 10° NNE 07:33:42 59° WNW 07:38:58 10° SW visible
17 Dec ? 17:17:25 10° SSE 17:22:46 89° WSW 17:28:10 10° NNW visible
17 Dec ? 18:59:47 10° SW 19:03:31 19° W 19:07:16 10° NW visible
18 Dec ? 05:26:51 10° NE 05:30:54 21° E 05:34:56 10° SE visible
18 Dec ? 07:06:09 10° NNE 07:11:33 82° WNW 07:16:55 10° SSW visible
18 Dec ? 16:55:19 10° SSE 17:00:35 66° ENE 17:05:55 10° NNW visible
18 Dec ? 18:36:34 10° SSW 18:41:02 27° W 18:45:33 10° NW visible
19 Dec ? 05:05:22 10° NE 05:08:22 15° E 05:11:21 10° ESE visible
19 Dec ? 06:43:56 10° NNE 06:49:20 72° ESE 06:54:42 10° S visible
19 Dec ? 16:33:24 10° SE 16:38:29 47° ENE 16:43:36 10° N visible
19 Dec ? 18:13:40 10° SSW 18:18:37 38° W 18:23:36 10° NNW visible
